Time,TemperatureF,DewpointF,PressureIn,WindDirection,WindDirectionDegrees,WindSpeedMPH,WindSpeedGustMPH,Humidity,HourlyPrecipIn,Conditions,Clouds,dailyrainin,SoftwareType,DateUTC
2013-05-12 00:01:00,58.8,58.8,29.68,SW,230,0.0,0.0,100,0.00,,,0.00,Wunderground v.1.15,2013-05-12 04:01:00,
2013-05-12 00:02:00,58.8,58.8,29.68,SW,230,0.0,0.0,100,0.00,,,0.00,Wunderground v.1.15,2013-05-12 04:02:00,
2013-05-12 00:04:00,58.8,58.8,29.68,SW,230,0.0,0.0,100,0.00,,,0.00,Wunderground v.1.15,2013-05-12 04:04:00,
2013-05-12 00:09:00,58.9,58.9,29.68,SW,230,0.0,0.0,100,0.00,,,0.00,Wunderground v.1.15,2013-05-12 04:09:00,
2013-05-12 00:10:00,58.9,58.9,29.68,SW,230,0.0,0.0,100,0.00,,,0.00,Wunderground v.1.15,2013-05-12 04:10:00,
2013-05-12 00:15:00,58.9,58.9,29.68,SW,230,0.0,0.0,100,0.00,,,0.00,Wunderground v.1.15,2013-05-12 04:15:00,
2013-05-12 00:19:00,58.9,58.9,29.68,SW,230,0.0,0.0,100,0.00,,,0.00,Wunderground v.1.15,2013-05-12 04:19:00,
2013-05-12 00:24:00,59.0,59.0,29.68,SW,230,0.0,0.0,100,0.00,,,0.00,Wunderground v.1.15,2013-05-12 04:24:00,
2013-05-12 00:30:00,59.0,59.0,29.68,SW,230,0.0,0.0,100,0.00,,,0.00,Wunderground v.1.15,2013-05-12 04:30:00,
2013-05-12 00:35:00,59.0,59.0,29.68,SW,230,0.0,0.0,100,0.00,,,0.00,Wunderground v.1.15,2013-05-12 04:35:00,
2013-05-12 00:40:00,59.0,59.0,29.68,SW,230,0.0,0.0,100,0.00,,,0.00,Wunderground v.1.15,2013-05-12 04:40:00,
2013-05-12 00:45:00,59.0,59.0,29.68,SW,230,0.0,0.0,100,0.00,,,0.00,Wunderground v.1.15,2013-05-12 04:45:00,
2013-05-12 00:50:00,59.0,59.0,29.68,SW,230,0.0,0.0,100,0.00,,,0.00,Wunderground v.1.15,2013-05-12 04:50:00,
2013-05-12 00:55:00,59.0,59.0,29.68,SW,230,0.0,0.0,100,0.00,,,0.00,Wunderground v.1.15,2013-05-12 04:55:00,
2013-05-12 01:00:00,59.1,59.1,29.68,South,178,0.0,0.0,100,0.00,,,0.00,Wunderground v.1.15,2013-05-12 05:00:00,
2013-05-12 01:06:00,59.3,59.3,29.67,SSW,207,1.0,1.0,100,0.00,,,0.00,Wunderground v.1.15,2013-05-12 05:06:00,
2013-05-12 01:11:00,59.4,59.4,29.67,SSW,207,1.0,1.0,100,0.00,,,0.00,Wunderground v.1.15,2013-05-12 05:11:00,
2013-05-12 01:16:00,59.5,59.5,29.67,SSW,207,1.0,2.0,100,0.00,,,0.00,Wunderground v.1.15,2013-05-12 05:16:00,
2013-05-12 01:21:00,59.6,59.6,29.67,SSW,207,1.0,2.0,100,0.00,,,0.00,Wunderground v.1.15,2013-05-12 05:21:00,
2013-05-12 01:27:00,59.7,59.7,29.66,West,276,1.0,3.0,100,0.00,,,0.00,Wunderground v.1.15,2013-05-12 05:27:00,
2013-05-12 01:32:00,59.7,59.7,29.66,West,276,1.0,2.0,100,0.00,,,0.00,Wunderground v.1.15,2013-05-12 05:32:00,
2013-05-12 01:37:00,59.7,59.7,29.66,West,276,0.0,2.0,100,0.00,,,0.00,Wunderground v.1.15,2013-05-12 05:37:00,
2013-05-12 01:42:00,59.6,59.6,29.65,West,276,0.0,1.0,100,0.00,,,0.00,Wunderground v.1.15,2013-05-12 05:42:00,
2013-05-12 01:47:00,59.5,59.5,29.65,West,276,0.0,1.0,100,0.00,,,0.00,Wunderground v.1.15,2013-05-12 05:47:00,
2013-05-12 01:52:00,59.5,59.5,29.66,West,276,0.0,3.0,100,0.00,,,0.00,Wunderground v.1.15,2013-05-12 05:52:00,
2013-05-12 01:57:00,59.4,59.4,29.65,West,276,0.0,3.0,100,0.00,,,0.00,Wunderground v.1.15,2013-05-12 05:57:00,
2013-05-12 02:04:00,59.4,59.4,29.66,West,276,0.0,1.0,100,0.00,,,0.00,Wunderground v.1.15,2013-05-12 06:04:00,
2013-05-12 02:09:00,59.3,59.3,29.66,West,276,0.0,1.0,100,0.00,,,0.00,Wunderground v.1.15,2013-05-12 06:09:00,
2013-05-12 02:14:00,59.2,59.2,29.65,West,276,0.0,1.0,100,0.00,,,0.00,Wunderground v.1.15,2013-05-12 06:14:00,
2013-05-12 02:19:00,59.1,59.1,29.66,WNW,282,1.0,2.0,100,0.00,,,0.00,Wunderground v.1.15,2013-05-12 06:19:00,
2013-05-12 02:24:00,58.9,58.9,29.65,WNW,289,1.0,2.0,100,0.00,,,0.00,Wunderground v.1.15,2013-05-12 06:24:00,
2013-05-12 02:29:00,58.8,58.8,29.65,WNW,296,2.0,3.0,100,0.00,,,0.00,Wunderground v.1.15,2013-05-12 06:29:00,
2013-05-12 02:34:00,58.7,58.7,29.64,WNW,285,2.0,3.0,100,0.00,,,0.00,Wunderground v.1.15,2013-05-12 06:34:00,
2013-05-12 02:39:00,58.6,58.6,29.64,WNW,287,1.0,3.0,100,0.00,,,0.00,Wunderground v.1.15,2013-05-12 06:39:00,
2013-05-12 02:44:00,58.4,58.1,29.64,West,275,1.0,3.0,99,0.00,,,0.00,Wunderground v.1.15,2013-05-12 06:44:00,
2013-05-12 02:49:00,58.3,58.0,29.62,NW,306,2.0,6.0,99,0.00,,,0.00,Wunderground v.1.15,2013-05-12 06:49:00,
2013-05-12 02:54:00,58.2,57.9,29.62,WNW,286,1.0,3.0,99,0.00,,,0.00,Wunderground v.1.15,2013-05-12 06:54:00,
2013-05-12 02:59:00,58.1,57.8,29.63,WNW,283,2.0,3.0,99,0.00,,,0.00,Wunderground v.1.15,2013-05-12 06:59:00,
2013-05-12 03:05:00,58.0,57.7,29.63,WNW,283,1.0,2.0,99,0.00,,,0.00,Wunderground v.1.15,2013-05-12 07:05:00,
2013-05-12 03:10:00,57.9,57.6,29.64,WNW,283,1.0,2.0,99,0.00,,,0.00,Wunderground v.1.15,2013-05-12 07:10:00,
2013-05-12 03:15:00,57.7,57.4,29.64,WNW,283,1.0,2.0,99,0.00,,,0.00,Wunderground v.1.15,2013-05-12 07:15:00,
2013-05-12 03:20:00,57.6,57.3,29.64,WNW,283,0.0,1.0,99,0.00,,,0.00,Wunderground v.1.15,2013-05-12 07:20:00,
2013-05-12 03:26:00,57.5,57.2,29.65,WNW,283,1.0,3.0,99,0.00,,,0.00,Wunderground v.1.15,2013-05-12 07:26:00,
2013-05-12 03:31:00,57.5,57.2,29.65,WNW,283,1.0,1.0,99,0.00,,,0.00,Wunderground v.1.15,2013-05-12 07:31:00,
2013-05-12 03:36:00,57.5,57.2,29.65,WNW,283,1.0,3.0,99,0.00,,,0.00,Wunderground v.1.15,2013-05-12 07:36:00,
2013-05-12 03:41:00,57.4,57.1,29.65,WNW,297,1.0,1.0,99,0.00,,,0.00,Wunderground v.1.15,2013-05-12 07:41:00,
2013-05-12 03:47:00,57.4,57.1,29.65,WNW,297,1.0,2.0,99,0.00,,,0.00,Wunderground v.1.15,2013-05-12 07:47:00,
2013-05-12 03:52:00,57.3,57.0,29.65,West,269,0.0,2.0,99,0.00,,,0.00,Wunderground v.1.15,2013-05-12 07:52:00,
2013-05-12 03:57:00,57.2,56.9,29.65,West,269,0.0,2.0,99,0.00,,,0.00,Wunderground v.1.15,2013-05-12 07:57:00,
2013-05-12 04:04:00,57.2,56.6,29.65,West,280,1.0,3.0,98,0.00,,,0.00,Wunderground v.1.15,2013-05-12 08:04:00,
2013-05-12 04:09:00,57.2,56.6,29.65,WNW,292,2.0,6.0,98,0.00,,,0.00,Wunderground v.1.15,2013-05-12 08:09:00,
2013-05-12 04:14:00,57.1,56.5,29.65,WNW,292,1.0,2.0,98,0.00,,,0.00,Wunderground v.1.15,2013-05-12 08:14:00,
2013-05-12 04:19:00,57.0,56.2,29.65,West,280,1.0,2.0,97,0.00,,,0.00,Wunderground v.1.15,2013-05-12 08:19:00,
2013-05-12 04:24:00,57.0,56.2,29.65,West,280,0.0,1.0,97,0.00,,,0.00,Wunderground v.1.15,2013-05-12 08:24:00,
2013-05-12 04:29:00,57.0,56.2,29.65,West,280,0.0,1.0,97,0.00,,,0.00,Wunderground v.1.15,2013-05-12 08:29:00,
2013-05-12 04:34:00,57.0,56.4,29.65,West,280,0.0,0.0,98,0.00,,,0.00,Wunderground v.1.15,2013-05-12 08:34:00,
2013-05-12 04:39:00,57.0,56.4,29.65,West,280,0.0,0.0,98,0.00,,,0.00,Wunderground v.1.15,2013-05-12 08:39:00,
2013-05-12 04:44:00,57.0,56.4,29.66,West,280,0.0,0.0,98,0.00,,,0.00,Wunderground v.1.15,2013-05-12 08:44:00,
2013-05-12 04:49:00,56.9,56.3,29.66,West,280,0.0,0.0,98,0.00,,,0.00,Wunderground v.1.15,2013-05-12 08:49:00,
2013-05-12 04:55:00,56.8,56.2,29.66,West,280,0.0,0.0,98,0.00,,,0.00,Wunderground v.1.15,2013-05-12 08:55:00,
2013-05-12 05:00:00,56.7,56.1,29.66,West,280,0.0,0.0,98,0.00,,,0.00,Wunderground v.1.15,2013-05-12 09:00:00,
2013-05-12 05:06:00,56.7,56.1,29.66,West,280,0.0,0.0,98,0.00,,,0.00,Wunderground v.1.15,2013-05-12 09:06:00,
2013-05-12 05:11:00,56.6,56.0,29.66,West,280,0.0,0.0,98,0.00,,,0.00,Wunderground v.1.15,2013-05-12 09:11:00,
2013-05-12 05:16:00,56.5,56.2,29.64,West,280,0.0,0.0,99,0.00,,,0.00,Wunderground v.1.15,2013-05-12 09:16:00,
2013-05-12 05:21:00,56.5,56.2,29.65,West,280,0.0,0.0,99,0.00,,,0.00,Wunderground v.1.15,2013-05-12 09:21:00,
2013-05-12 05:26:00,56.4,56.1,29.66,West,280,0.0,2.0,99,0.00,,,0.00,Wunderground v.1.15,2013-05-12 09:26:00,
2013-05-12 05:32:00,56.4,56.1,29.67,West,280,0.0,0.0,99,0.00,,,0.00,Wunderground v.1.15,2013-05-12 09:32:00,
2013-05-12 05:39:00,56.3,56.0,29.66,West,280,0.0,2.0,99,0.00,,,0.00,Wunderground v.1.15,2013-05-12 09:39:00,
2013-05-12 05:44:00,56.3,56.0,29.66,West,280,0.0,0.0,99,0.00,,,0.00,Wunderground v.1.15,2013-05-12 09:44:00,
2013-05-12 05:49:00,56.3,56.0,29.66,West,280,0.0,2.0,99,0.00,,,0.00,Wunderground v.1.15,2013-05-12 09:49:00,
2013-05-12 05:54:00,56.1,55.5,29.67,West,280,1.0,2.0,98,0.00,,,0.01,Wunderground v.1.15,2013-05-12 09:54:00,
2013-05-12 05:58:00,56.1,55.5,29.68,West,280,1.0,3.0,98,0.00,,,0.01,Wunderground v.1.15,2013-05-12 09:58:00,
2013-05-12 06:03:00,56.0,55.4,29.67,WNW,300,1.0,1.0,98,0.00,,,0.01,Wunderground v.1.15,2013-05-12 10:03:00,
2013-05-12 06:09:00,55.8,55.2,29.68,WNW,294,1.0,2.0,98,0.16,,,0.02,Wunderground v.1.15,2013-05-12 10:09:00,
2013-05-12 06:14:00,55.8,55.2,29.67,WNW,294,1.0,1.0,98,0.12,,,0.03,Wunderground v.1.15,2013-05-12 10:14:00,
2013-05-12 06:19:00,55.7,55.1,29.67,WNW,294,0.0,1.0,98,0.06,,,0.03,Wunderground v.1.15,2013-05-12 10:19:00,
2013-05-12 06:24:00,55.6,55.0,29.67,WNW,302,1.0,3.0,98,0.04,,,0.03,Wunderground v.1.15,2013-05-12 10:24:00,
2013-05-12 06:29:00,55.5,54.9,29.67,WNW,294,2.0,3.0,98,0.00,,,0.03,Wunderground v.1.15,2013-05-12 10:29:00,
2013-05-12 06:34:00,55.4,54.8,29.68,WNW,294,1.0,2.0,98,0.00,,,0.03,Wunderground v.1.15,2013-05-12 10:34:00,
2013-05-12 06:39:00,55.4,54.8,29.67,WNW,294,0.0,2.0,98,0.00,,,0.03,Wunderground v.1.15,2013-05-12 10:39:00,
2013-05-12 06:44:00,55.4,54.8,29.68,WNW,294,0.0,0.0,98,0.00,,,0.03,Wunderground v.1.15,2013-05-12 10:44:00,
2013-05-12 06:49:00,55.4,54.8,29.68,WNW,294,0.0,0.0,98,0.00,,,0.03,Wunderground v.1.15,2013-05-12 10:49:00,
2013-05-12 06:55:00,55.4,54.8,29.67,WNW,294,0.0,0.0,98,0.00,,,0.03,Wunderground v.1.15,2013-05-12 10:55:00,
2013-05-12 07:00:00,55.3,54.7,29.68,WNW,294,0.0,0.0,98,0.00,,,0.03,Wunderground v.1.15,2013-05-12 11:00:00,
2013-05-12 07:06:00,55.3,54.7,29.67,WNW,294,0.0,0.0,98,0.00,,,0.03,Wunderground v.1.15,2013-05-12 11:06:00,
2013-05-12 07:11:00,55.3,55.0,29.65,WNW,294,0.0,1.0,99,0.00,,,0.03,Wunderground v.1.15,2013-05-12 11:11:00,
2013-05-12 07:16:00,55.3,55.0,29.66,WNW,294,0.0,1.0,99,0.00,,,0.03,Wunderground v.1.15,2013-05-12 11:16:00,
2013-05-12 07:21:00,55.3,55.0,29.66,WNW,294,0.0,0.0,99,0.00,,,0.03,Wunderground v.1.15,2013-05-12 11:21:00,
2013-05-12 07:26:00,55.3,55.0,29.66,WNW,294,0.0,1.0,99,0.00,,,0.03,Wunderground v.1.15,2013-05-12 11:26:00,
2013-05-12 07:31:00,55.3,55.0,29.67,WNW,294,0.0,0.0,99,0.00,,,0.03,Wunderground v.1.15,2013-05-12 11:31:00,
2013-05-12 07:36:00,55.2,54.9,29.67,WNW,294,0.0,1.0,99,0.00,,,0.03,Wunderground v.1.15,2013-05-12 11:36:00,
2013-05-12 07:41:00,55.2,54.9,29.68,WNW,294,0.0,0.0,99,0.00,,,0.03,Wunderground v.1.15,2013-05-12 11:41:00,
2013-05-12 07:47:00,55.1,54.5,29.68,NW,311,1.0,3.0,98,0.00,,,0.03,Wunderground v.1.15,2013-05-12 11:47:00,
2013-05-12 07:52:00,55.0,54.2,29.68,SSW,207,1.0,1.0,97,0.00,,,0.03,Wunderground v.1.15,2013-05-12 11:52:00,
2013-05-12 07:57:00,54.9,54.1,29.68,NW,307,1.0,1.0,97,0.00,,,0.03,Wunderground v.1.15,2013-05-12 11:57:00,
2013-05-12 08:03:00,54.9,53.8,29.67,WNW,284,1.0,3.0,96,0.00,,,0.03,Wunderground v.1.15,2013-05-12 12:03:00,
2013-05-12 08:09:00,54.9,53.5,29.67,WNW,284,1.0,4.0,95,0.00,,,0.03,Wunderground v.1.15,2013-05-12 12:09:00,
2013-05-12 08:14:00,54.9,53.8,29.67,West,273,2.0,2.0,96,0.00,,,0.03,Wunderground v.1.15,2013-05-12 12:14:00,
2013-05-12 08:19:00,55.1,53.7,29.66,West,278,1.0,4.0,95,0.00,,,0.03,Wunderground v.1.15,2013-05-12 12:19:00,
2013-05-12 08:24:00,55.2,53.5,29.67,SW,236,2.0,5.0,94,0.00,,,0.03,Wunderground v.1.15,2013-05-12 12:24:00,
2013-05-12 08:29:00,55.3,53.3,29.67,West,277,3.0,6.0,93,0.00,,,0.03,Wunderground v.1.15,2013-05-12 12:29:00,
2013-05-12 08:34:00,55.5,53.8,29.66,WNW,290,3.0,7.0,94,0.00,,,0.03,Wunderground v.1.15,2013-05-12 12:34:00,
2013-05-12 08:39:00,55.6,53.6,29.67,WNW,288,3.0,7.0,93,0.00,,,0.03,Wunderground v.1.15,2013-05-12 12:39:00,
2013-05-12 08:44:00,55.7,53.7,29.67,WNW,289,3.0,3.0,93,0.00,,,0.03,Wunderground v.1.15,2013-05-12 12:44:00,
2013-05-12 08:49:00,55.8,53.8,29.66,West,266,2.0,6.0,93,0.00,,,0.03,Wunderground v.1.15,2013-05-12 12:49:00,
2013-05-12 08:54:00,56.0,53.7,29.67,NW,304,2.0,4.0,92,0.00,,,0.03,Wunderground v.1.15,2013-05-12 12:54:00,
2013-05-12 08:59:00,56.2,53.9,29.67,NW,313,2.0,8.0,92,0.00,,,0.03,Wunderground v.1.15,2013-05-12 12:59:00,
2013-05-12 09:05:00,56.4,53.5,29.67,WNW,289,3.0,7.0,90,0.00,,,0.03,Wunderground v.1.15,2013-05-12 13:05:00,
2013-05-12 09:10:00,56.6,53.4,29.67,West,281,2.0,2.0,89,0.00,,,0.03,Wunderground v.1.15,2013-05-12 13:10:00,
2013-05-12 09:15:00,56.7,53.2,29.67,WNW,290,3.0,8.0,88,0.00,,,0.03,Wunderground v.1.15,2013-05-12 13:15:00,
2013-05-12 09:20:00,57.1,53.0,29.67,West,267,3.0,4.0,86,0.00,,,0.03,Wunderground v.1.15,2013-05-12 13:20:00,
2013-05-12 09:25:00,57.5,53.3,29.67,WNW,289,3.0,4.0,86,0.00,,,0.03,Wunderground v.1.15,2013-05-12 13:25:00,
2013-05-12 09:30:00,57.8,53.3,29.67,WNW,295,4.0,4.0,85,0.00,,,0.03,Wunderground v.1.15,2013-05-12 13:30:00,
2013-05-12 09:35:00,58.2,53.4,29.67,NW,323,4.0,6.0,84,0.00,,,0.03,Wunderground v.1.15,2013-05-12 13:35:00,
2013-05-12 09:40:00,58.4,53.3,29.67,NW,304,3.0,5.0,83,0.00,,,0.03,Wunderground v.1.15,2013-05-12 13:40:00,
2013-05-12 09:45:00,58.7,52.9,29.67,West,272,5.0,12.0,81,0.00,,,0.03,Wunderground v.1.15,2013-05-12 13:45:00,
2013-05-12 09:50:00,59.1,53.3,29.67,West,273,6.0,8.0,81,0.00,,,0.03,Wunderground v.1.15,2013-05-12 13:50:00,
2013-05-12 09:56:00,59.6,53.4,29.66,WNW,282,4.0,8.0,80,0.00,,,0.03,Wunderground v.1.15,2013-05-12 13:56:00,
2013-05-12 10:01:00,60.0,53.5,29.66,NW,325,3.0,3.0,79,0.00,,,0.03,Wunderground v.1.15,2013-05-12 14:01:00,
2013-05-12 10:07:00,60.7,53.8,29.66,WNW,298,3.0,7.0,78,0.00,,,0.03,Wunderground v.1.15,2013-05-12 14:07:00,
2013-05-12 10:12:00,61.1,54.2,29.66,West,275,4.0,9.0,78,0.00,,,0.03,Wunderground v.1.15,2013-05-12 14:12:00,
2013-05-12 10:17:00,61.3,53.7,29.66,SW,236,6.0,9.0,76,0.00,,,0.03,Wunderground v.1.15,2013-05-12 14:17:00,
2013-05-12 10:22:00,61.3,53.3,29.66,NE,34,6.0,6.0,75,0.00,,,0.03,Wunderground v.1.15,2013-05-12 14:22:00,
2013-05-12 10:27:00,61.7,53.3,29.66,NE,37,5.0,7.0,74,0.00,,,0.03,Wunderground v.1.15,2013-05-12 14:27:00,
2013-05-12 10:32:00,62.0,54.0,29.66,West,268,3.0,6.0,75,0.00,,,0.03,Wunderground v.1.15,2013-05-12 14:32:00,
2013-05-12 10:38:00,61.9,53.9,29.66,NNW,338,4.0,9.0,75,0.00,,,0.03,Wunderground v.1.15,2013-05-12 14:38:00,
2013-05-12 10:44:00,62.2,54.2,29.66,West,271,4.0,4.0,75,0.00,,,0.03,Wunderground v.1.15,2013-05-12 14:44:00,
2013-05-12 10:49:00,62.6,53.8,29.66,North,349,3.0,9.0,73,0.00,,,0.03,Wunderground v.1.15,2013-05-12 14:49:00,
2013-05-12 10:54:00,63.0,52.7,29.66,SW,219,3.0,3.0,69,0.00,,,0.03,Wunderground v.1.15,2013-05-12 14:54:00,
2013-05-12 11:00:00,63.9,53.5,29.66,WSW,250,2.0,2.0,69,0.00,,,0.03,Wunderground v.1.15,2013-05-12 15:00:00,
2013-05-12 11:06:00,64.1,52.9,29.66,WNW,288,4.0,17.0,67,0.00,,,0.03,Wunderground v.1.15,2013-05-12 15:06:00,
2013-05-12 11:11:00,64.0,51.6,29.66,West,267,4.0,6.0,64,0.00,,,0.03,Wunderground v.1.15,2013-05-12 15:11:00,
2013-05-12 11:17:00,63.3,51.3,29.66,WNW,290,4.0,8.0,65,0.00,,,0.03,Wunderground v.1.15,2013-05-12 15:17:00,
2013-05-12 11:22:00,63.3,52.2,29.66,WNW,297,5.0,7.0,67,0.00,,,0.03,Wunderground v.1.15,2013-05-12 15:22:00,
2013-05-12 11:28:00,63.9,51.1,29.66,East,92,4.0,9.0,63,0.00,,,0.03,Wunderground v.1.15,2013-05-12 15:28:00,
2013-05-12 11:33:00,64.6,51.3,29.66,WNW,283,4.0,9.0,62,0.00,,,0.03,Wunderground v.1.15,2013-05-12 15:33:00,
2013-05-12 11:38:00,65.1,50.0,29.66,WSW,258,6.0,11.0,58,0.00,,,0.03,Wunderground v.1.15,2013-05-12 15:38:00,
2013-05-12 11:43:00,65.3,51.1,29.66,WSW,253,7.0,8.0,60,0.00,,,0.03,Wunderground v.1.15,2013-05-12 15:43:00,
2013-05-12 11:48:00,65.4,50.7,29.65,SW,234,4.0,8.0,59,0.00,,,0.03,Wunderground v.1.15,2013-05-12 15:48:00,
2013-05-12 11:53:00,65.7,51.0,29.66,North,360,3.0,4.0,59,0.00,,,0.03,Wunderground v.1.15,2013-05-12 15:53:00,
2013-05-12 11:58:00,65.7,51.0,29.65,WSW,242,4.0,11.0,59,0.00,,,0.03,Wunderground v.1.15,2013-05-12 15:58:00,
2013-05-12 12:03:00,65.3,51.1,29.65,NW,318,4.0,13.0,60,0.00,,,0.03,Wunderground v.1.15,2013-05-12 16:03:00,
2013-05-12 12:08:00,65.5,51.2,29.65,WNW,284,4.0,13.0,60,0.00,,,0.03,Wunderground v.1.15,2013-05-12 16:08:00,
2013-05-12 12:13:00,65.6,50.0,29.65,WSW,256,3.0,8.0,57,0.00,,,0.03,Wunderground v.1.15,2013-05-12 16:13:00,
2013-05-12 12:19:00,65.5,49.9,29.65,NNW,345,3.0,8.0,57,0.00,,,0.03,Wunderground v.1.15,2013-05-12 16:19:00,
2013-05-12 12:24:00,65.6,49.0,29.65,NW,305,3.0,5.0,55,0.00,,,0.03,Wunderground v.1.15,2013-05-12 16:24:00,
2013-05-12 12:29:00,66.2,50.0,29.65,WSW,244,4.0,8.0,56,0.00,,,0.03,Wunderground v.1.15,2013-05-12 16:29:00,
2013-05-12 12:34:00,66.9,49.7,29.65,West,280,4.0,9.0,54,0.00,,,0.03,Wunderground v.1.15,2013-05-12 16:34:00,
2013-05-12 12:39:00,67.4,47.0,29.65,SW,232,4.0,9.0,48,0.00,,,0.03,Wunderground v.1.15,2013-05-12 16:39:00,
2013-05-12 12:45:00,67.1,47.8,29.65,SW,217,5.0,10.0,50,0.00,,,0.03,Wunderground v.1.15,2013-05-12 16:45:00,
2013-05-12 12:50:00,66.7,48.5,29.65,WNW,284,4.0,7.0,52,0.00,,,0.03,Wunderground v.1.15,2013-05-12 16:50:00,
2013-05-12 12:56:00,66.6,47.9,29.65,WSW,244,6.0,12.0,51,0.00,,,0.03,Wunderground v.1.15,2013-05-12 16:56:00,
2013-05-12 13:02:00,66.2,47.0,29.65,SW,223,5.0,9.0,50,0.00,,,0.03,Wunderground v.1.15,2013-05-12 17:02:00,
2013-05-12 13:07:00,66.0,48.9,29.65,NW,311,4.0,9.0,54,0.00,,,0.03,Wunderground v.1.15,2013-05-12 17:07:00,
2013-05-12 13:13:00,65.9,48.3,29.65,NW,317,3.0,5.0,53,0.00,,,0.03,Wunderground v.1.15,2013-05-12 17:13:00,
2013-05-12 13:18:00,66.2,50.0,29.65,WNW,298,3.0,7.0,56,0.00,,,0.03,Wunderground v.1.15,2013-05-12 17:18:00,
2013-05-12 13:23:00,66.5,47.8,29.65,NNW,337,5.0,11.0,51,0.00,,,0.03,Wunderground v.1.15,2013-05-12 17:23:00,
2013-05-12 13:28:00,66.0,46.3,29.65,West,278,6.0,12.0,49,0.00,,,0.03,Wunderground v.1.15,2013-05-12 17:28:00,
2013-05-12 13:34:00,65.6,47.0,29.65,WSW,250,6.0,11.0,51,0.00,,,0.03,Wunderground v.1.15,2013-05-12 17:34:00,
2013-05-12 13:38:00,65.9,47.3,29.65,West,280,6.0,12.0,51,0.00,,,0.03,Wunderground v.1.15,2013-05-12 17:38:00,
2013-05-12 13:44:00,65.6,47.0,29.65,SSW,211,6.0,7.0,51,0.00,,,0.03,Wunderground v.1.15,2013-05-12 17:44:00,
2013-05-12 13:49:00,65.3,46.2,29.65,WNW,288,6.0,11.0,50,0.00,,,0.03,Wunderground v.1.15,2013-05-12 17:49:00,
2013-05-12 13:54:00,65.2,46.1,29.65,WNW,292,6.0,9.0,50,0.00,,,0.03,Wunderground v.1.15,2013-05-12 17:54:00,
2013-05-12 13:59:00,65.2,45.5,29.65,WNW,294,5.0,9.0,49,0.00,,,0.03,Wunderground v.1.15,2013-05-12 17:59:00,
2013-05-12 14:04:00,65.9,46.2,29.65,WSW,255,5.0,12.0,49,0.00,,,0.03,Wunderground v.1.15,2013-05-12 18:04:00,
2013-05-12 14:09:00,66.6,44.6,29.65,West,261,6.0,12.0,45,0.00,,,0.03,Wunderground v.1.15,2013-05-12 18:09:00,
2013-05-12 14:14:00,67.2,44.5,29.65,SSE,148,6.0,11.0,44,0.00,,,0.03,Wunderground v.1.15,2013-05-12 18:14:00,
2013-05-12 14:19:00,67.5,44.8,29.65,SSE,158,6.0,11.0,44,0.00,,,0.03,Wunderground v.1.15,2013-05-12 18:19:00,
2013-05-12 14:24:00,67.8,46.8,29.64,WSW,257,4.0,8.0,47,0.00,,,0.03,Wunderground v.1.15,2013-05-12 18:24:00,
2013-05-12 14:29:00,68.0,44.0,29.65,WNW,288,6.0,10.0,42,0.00,,,0.03,Wunderground v.1.15,2013-05-12 18:29:00,
2013-05-12 14:35:00,67.4,47.6,29.65,NW,306,8.0,11.0,49,0.00,,,0.03,Wunderground v.1.15,2013-05-12 18:35:00,
2013-05-12 14:40:00,66.4,46.7,29.65,WNW,292,5.0,5.0,49,0.00,,,0.03,Wunderground v.1.15,2013-05-12 18:40:00,
2013-05-12 14:45:00,65.3,46.2,29.65,West,259,5.0,5.0,50,0.00,,,0.03,Wunderground v.1.15,2013-05-12 18:45:00,
2013-05-12 14:50:00,64.8,46.2,29.65,West,267,6.0,6.0,51,0.00,,,0.03,Wunderground v.1.15,2013-05-12 18:50:00,
2013-05-12 14:55:00,64.7,45.6,29.65,WNW,286,6.0,9.0,50,0.00,,,0.03,Wunderground v.1.15,2013-05-12 18:55:00,
2013-05-12 15:00:00,65.0,45.4,29.65,West,279,6.0,6.0,49,0.00,,,0.03,Wunderground v.1.15,2013-05-12 19:00:00,
2013-05-12 15:06:00,65.6,45.4,29.65,SSW,206,6.0,9.0,48,0.00,,,0.03,Wunderground v.1.15,2013-05-12 19:06:00,
2013-05-12 15:11:00,65.9,46.7,29.65,NW,307,5.0,13.0,50,0.00,,,0.03,Wunderground v.1.15,2013-05-12 19:11:00,
2013-05-12 15:17:00,66.4,47.2,29.65,WNW,290,4.0,13.0,50,0.00,,,0.03,Wunderground v.1.15,2013-05-12 19:17:00,
2013-05-12 15:23:00,66.7,49.0,29.65,West,263,3.0,7.0,53,0.00,,,0.03,Wunderground v.1.15,2013-05-12 19:23:00,
2013-05-12 15:29:00,67.1,45.6,29.65,West,273,4.0,12.0,46,0.00,,,0.03,Wunderground v.1.15,2013-05-12 19:29:00,
2013-05-12 15:34:00,66.6,43.4,29.65,North,355,7.0,11.0,43,0.00,,,0.03,Wunderground v.1.15,2013-05-12 19:34:00,
2013-05-12 15:40:00,66.2,43.0,29.65,West,277,7.0,7.0,43,0.00,,,0.03,Wunderground v.1.15,2013-05-12 19:40:00,
2013-05-12 15:45:00,65.9,44.5,29.65,West,263,6.0,10.0,46,0.00,,,0.03,Wunderground v.1.15,2013-05-12 19:45:00,
2013-05-12 15:50:00,65.1,42.0,29.65,West,266,7.0,12.0,43,0.00,,,0.03,Wunderground v.1.15,2013-05-12 19:50:00,
2013-05-12 15:55:00,64.0,41.6,29.65,West,281,8.0,14.0,44,0.00,,,0.03,Wunderground v.1.15,2013-05-12 19:55:00,
2013-05-12 16:00:00,63.8,41.5,29.65,WNW,301,9.0,9.0,44,0.00,,,0.03,Wunderground v.1.15,2013-05-12 20:00:00,
2013-05-12 16:06:00,64.0,40.4,29.65,NW,304,8.0,11.0,42,0.00,,,0.03,Wunderground v.1.15,2013-05-12 20:06:00,
2013-05-12 16:12:00,64.0,40.4,29.65,NW,309,6.0,8.0,42,0.00,,,0.03,Wunderground v.1.15,2013-05-12 20:12:00,
2013-05-12 16:19:00,64.3,41.3,29.66,WSW,254,7.0,14.0,43,0.00,,,0.03,Wunderground v.1.15,2013-05-12 20:19:00,
2013-05-12 16:24:00,64.3,38.8,29.66,WNW,288,7.0,9.0,39,0.00,,,0.03,Wunderground v.1.15,2013-05-12 20:24:00,
2013-05-12 16:29:00,64.0,38.5,29.66,NW,309,7.0,12.0,39,0.00,,,0.03,Wunderground v.1.15,2013-05-12 20:29:00,
2013-05-12 16:35:00,63.9,37.1,29.66,WSW,248,7.0,11.0,37,0.00,,,0.03,Wunderground v.1.15,2013-05-12 20:35:00,
2013-05-12 16:40:00,63.6,36.1,29.66,WSW,248,8.0,9.0,36,0.00,,,0.03,Wunderground v.1.15,2013-05-12 20:40:00,
2013-05-12 16:46:00,63.4,35.2,29.67,WSW,247,8.0,13.0,35,0.00,,,0.03,Wunderground v.1.15,2013-05-12 20:46:00,
2013-05-12 16:51:00,63.4,35.2,29.67,West,269,7.0,11.0,35,0.00,,,0.03,Wunderground v.1.15,2013-05-12 20:51:00,
2013-05-12 16:57:00,63.4,36.0,29.67,WNW,302,7.0,11.0,36,0.00,,,0.03,Wunderground v.1.15,2013-05-12 20:57:00,
2013-05-12 17:03:00,63.3,35.9,29.67,West,273,6.0,10.0,36,0.00,,,0.03,Wunderground v.1.15,2013-05-12 21:03:00,
2013-05-12 17:09:00,63.2,34.3,29.68,West,260,7.0,10.0,34,0.00,,,0.03,Wunderground v.1.15,2013-05-12 21:09:00,
2013-05-12 17:14:00,63.1,32.7,29.68,West,277,6.0,24.0,32,0.00,,,0.03,Wunderground v.1.15,2013-05-12 21:14:00,
2013-05-12 17:19:00,63.0,32.7,29.68,NW,315,8.0,24.0,32,0.00,,,0.03,Wunderground v.1.15,2013-05-12 21:19:00,
2013-05-12 17:25:00,62.7,32.4,29.68,NW,310,9.0,14.0,32,0.00,,,0.03,Wunderground v.1.15,2013-05-12 21:25:00,
2013-05-12 17:30:00,62.3,31.3,29.69,WNW,289,8.0,8.0,31,0.00,,,0.03,Wunderground v.1.15,2013-05-12 21:30:00,
2013-05-12 17:36:00,61.9,33.9,29.69,WNW,284,7.0,8.0,35,0.00,,,0.03,Wunderground v.1.15,2013-05-12 21:36:00,
2013-05-12 17:41:00,61.9,33.9,29.69,West,273,6.0,11.0,35,0.00,,,0.03,Wunderground v.1.15,2013-05-12 21:41:00,
2013-05-12 17:46:00,62.1,34.8,29.70,West,278,6.0,11.0,36,0.00,,,0.03,Wunderground v.1.15,2013-05-12 21:46:00,
2013-05-12 17:51:00,62.1,31.9,29.70,WNW,291,5.0,8.0,32,0.00,,,0.03,Wunderground v.1.15,2013-05-12 21:51:00,
2013-05-12 17:56:00,61.6,32.2,29.70,ENE,59,6.0,10.0,33,0.00,,,0.03,Wunderground v.1.15,2013-05-12 21:56:00,
2013-05-12 18:02:00,61.0,31.7,29.71,WNW,288,6.0,8.0,33,0.00,,,0.03,Wunderground v.1.15,2013-05-12 22:02:00,
2013-05-12 18:07:00,60.3,31.8,29.71,WNW,283,6.0,8.0,34,0.00,,,0.03,Wunderground v.1.15,2013-05-12 22:07:00,
2013-05-12 18:12:00,60.0,31.5,29.72,WNW,292,5.0,9.0,34,0.00,,,0.03,Wunderground v.1.15,2013-05-12 22:12:00,
2013-05-12 18:17:00,60.0,31.5,29.72,NW,312,6.0,11.0,34,0.00,,,0.03,Wunderground v.1.15,2013-05-12 22:17:00,
2013-05-12 18:22:00,60.0,32.2,29.72,NW,309,7.0,7.0,35,0.00,,,0.03,Wunderground v.1.15,2013-05-12 22:22:00,
2013-05-12 18:27:00,59.9,32.9,29.72,West,261,5.0,7.0,36,0.00,,,0.03,Wunderground v.1.15,2013-05-12 22:27:00,
2013-05-12 18:32:00,59.7,31.3,29.72,West,271,4.0,10.0,34,0.00,,,0.03,Wunderground v.1.15,2013-05-12 22:32:00,
2013-05-12 18:37:00,59.5,32.5,29.73,NW,306,4.0,10.0,36,0.00,,,0.03,Wunderground v.1.15,2013-05-12 22:37:00,
2013-05-12 18:43:00,59.2,32.9,29.73,WNW,286,4.0,8.0,37,0.00,,,0.03,Wunderground v.1.15,2013-05-12 22:43:00,
2013-05-12 18:48:00,59.1,32.1,29.73,North,360,4.0,8.0,36,0.00,,,0.03,Wunderground v.1.15,2013-05-12 22:48:00,
2013-05-12 18:53:00,59.0,31.4,29.74,WNW,290,3.0,11.0,35,0.00,,,0.03,Wunderground v.1.15,2013-05-12 22:53:00,
2013-05-12 18:58:00,58.7,31.1,29.74,NW,325,5.0,11.0,35,0.00,,,0.03,Wunderground v.1.15,2013-05-12 22:58:00,
2013-05-12 19:04:00,58.5,30.9,29.74,WNW,284,7.0,14.0,35,0.00,,,0.03,Wunderground v.1.15,2013-05-12 23:04:00,
2013-05-12 19:09:00,58.2,30.7,29.74,WNW,284,6.0,14.0,35,0.00,,,0.03,Wunderground v.1.15,2013-05-12 23:09:00,
2013-05-12 19:14:00,58.0,31.2,29.75,WNW,300,5.0,7.0,36,0.00,,,0.03,Wunderground v.1.15,2013-05-12 23:14:00,
2013-05-12 19:19:00,57.9,31.8,29.74,WNW,286,4.0,7.0,37,0.00,,,0.03,Wunderground v.1.15,2013-05-12 23:19:00,
2013-05-12 19:24:00,57.9,33.1,29.75,West,268,3.0,6.0,39,0.00,,,0.03,Wunderground v.1.15,2013-05-12 23:24:00,
2013-05-12 19:29:00,57.8,31.0,29.75,West,278,4.0,13.0,36,0.00,,,0.03,Wunderground v.1.15,2013-05-12 23:29:00,
2013-05-12 19:34:00,57.7,31.6,29.75,WNW,299,5.0,9.0,37,0.00,,,0.03,Wunderground v.1.15,2013-05-12 23:34:00,
2013-05-12 19:39:00,57.7,31.6,29.76,WNW,288,5.0,9.0,37,0.00,,,0.03,Wunderground v.1.15,2013-05-12 23:39:00,
2013-05-12 19:44:00,57.5,32.1,29.76,WNW,292,5.0,5.0,38,0.00,,,0.03,Wunderground v.1.15,2013-05-12 23:44:00,
2013-05-12 19:49:00,57.3,31.9,29.76,West,275,4.0,5.0,38,0.00,,,0.03,Wunderground v.1.15,2013-05-12 23:49:00,
2013-05-12 19:55:00,57.1,31.7,29.76,West,269,3.0,10.0,38,0.00,,,0.03,Wunderground v.1.15,2013-05-12 23:55:00,
2013-05-12 20:00:00,56.9,30.9,29.77,NW,311,4.0,5.0,37,0.00,,,0.03,Wunderground v.1.15,2013-05-13 00:00:00,
2013-05-12 20:06:00,56.8,32.1,29.77,WNW,299,5.0,10.0,39,0.00,,,0.03,Wunderground v.1.15,2013-05-13 00:06:00,
2013-05-12 20:11:00,56.7,30.7,29.78,WNW,295,5.0,5.0,37,0.00,,,0.03,Wunderground v.1.15,2013-05-13 00:11:00,
2013-05-12 20:16:00,56.6,30.6,29.78,WSW,252,6.0,8.0,37,0.00,,,0.03,Wunderground v.1.15,2013-05-13 00:16:00,
2013-05-12 20:21:00,56.4,30.4,29.78,WSW,248,4.0,7.0,37,0.00,,,0.03,Wunderground v.1.15,2013-05-13 00:21:00,
2013-05-12 20:26:00,56.2,31.5,29.79,WNW,296,4.0,7.0,39,0.00,,,0.03,Wunderground v.1.15,2013-05-13 00:26:00,
2013-05-12 20:31:00,55.9,30.0,29.79,WNW,297,6.0,6.0,37,0.00,,,0.03,Wunderground v.1.15,2013-05-13 00:31:00,
2013-05-12 20:37:00,55.8,29.9,29.79,North,10,7.0,13.0,37,0.00,,,0.03,Wunderground v.1.15,2013-05-13 00:37:00,
2013-05-12 20:42:00,55.6,30.4,29.79,West,278,8.0,14.0,38,0.00,,,0.03,Wunderground v.1.15,2013-05-13 00:42:00,
2013-05-12 20:47:00,55.3,30.7,29.80,West,273,7.0,14.0,39,0.00,,,0.03,Wunderground v.1.15,2013-05-13 00:47:00,
2013-05-12 20:52:00,55.1,30.6,29.80,WNW,286,5.0,10.0,39,0.00,,,0.03,Wunderground v.1.15,2013-05-13 00:52:00,
2013-05-12 20:57:00,54.9,30.4,29.81,NW,310,5.0,10.0,39,0.00,,,0.03,Wunderground v.1.15,2013-05-13 00:57:00,
2013-05-12 21:04:00,54.7,30.8,29.81,WSW,258,5.0,6.0,40,0.00,,,0.03,Wunderground v.1.15,2013-05-13 01:04:00,
2013-05-12 21:09:00,54.5,31.3,29.82,West,281,4.0,7.0,41,0.00,,,0.03,Wunderground v.1.15,2013-05-13 01:09:00,
2013-05-12 21:14:00,54.3,31.7,29.82,WSW,255,4.0,9.0,42,0.00,,,0.03,Wunderground v.1.15,2013-05-13 01:14:00,
2013-05-12 21:19:00,54.1,32.1,29.83,WNW,299,6.0,9.0,43,0.00,,,0.03,Wunderground v.1.15,2013-05-13 01:19:00,
2013-05-12 21:24:00,54.0,32.0,29.83,NW,308,6.0,13.0,43,0.00,,,0.03,Wunderground v.1.15,2013-05-13 01:24:00,
2013-05-12 21:29:00,53.9,33.0,29.83,NW,313,7.0,13.0,45,0.00,,,0.03,Wunderground v.1.15,2013-05-13 01:29:00,
2013-05-12 21:35:00,53.7,33.4,29.84,WNW,293,6.0,9.0,46,0.00,,,0.03,Wunderground v.1.15,2013-05-13 01:35:00,
2013-05-12 21:40:00,53.5,32.7,29.84,WSW,252,5.0,5.0,45,0.00,,,0.03,Wunderground v.1.15,2013-05-13 01:40:00,
2013-05-12 21:45:00,53.3,32.5,29.84,WNW,282,5.0,11.0,45,0.00,,,0.03,Wunderground v.1.15,2013-05-13 01:45:00,
2013-05-12 21:50:00,53.1,32.3,29.85,West,259,5.0,6.0,45,0.00,,,0.03,Wunderground v.1.15,2013-05-13 01:50:00,
2013-05-12 21:55:00,53.0,32.2,29.85,WNW,292,4.0,7.0,45,0.00,,,0.03,Wunderground v.1.15,2013-05-13 01:55:00,
2013-05-12 22:00:00,52.8,31.5,29.85,West,277,5.0,7.0,44,0.00,,,0.03,Wunderground v.1.15,2013-05-13 02:00:00,
2013-05-12 22:06:00,52.7,30.8,29.86,West,275,7.0,16.0,43,0.00,,,0.03,Wunderground v.1.15,2013-05-13 02:06:00,
2013-05-12 22:11:00,52.6,30.7,29.86,WNW,298,7.0,8.0,43,0.00,,,0.03,Wunderground v.1.15,2013-05-13 02:11:00,
2013-05-12 22:16:00,52.4,30.5,29.86,WSW,253,6.0,11.0,43,0.00,,,0.03,Wunderground v.1.15,2013-05-13 02:16:00,
2013-05-12 22:21:00,52.3,31.6,29.86,West,259,6.0,6.0,45,0.00,,,0.03,Wunderground v.1.15,2013-05-13 02:21:00,
2013-05-12 22:26:00,52.1,30.3,29.86,WNW,301,6.0,7.0,43,0.00,,,0.03,Wunderground v.1.15,2013-05-13 02:26:00,
2013-05-12 22:32:00,51.9,30.6,29.87,West,264,5.0,5.0,44,0.00,,,0.03,Wunderground v.1.15,2013-05-13 02:32:00,
2013-05-12 22:37:00,51.7,30.5,29.87,West,277,5.0,8.0,44,0.00,,,0.03,Wunderground v.1.15,2013-05-13 02:37:00,
2013-05-12 22:42:00,51.5,30.8,29.87,NW,323,4.0,9.0,45,0.00,,,0.03,Wunderground v.1.15,2013-05-13 02:42:00,
2013-05-12 22:47:00,51.3,31.2,29.87,WNW,282,4.0,9.0,46,0.00,,,0.03,Wunderground v.1.15,2013-05-13 02:47:00,
2013-05-12 22:52:00,51.1,31.6,29.88,West,275,4.0,10.0,47,0.00,,,0.03,Wunderground v.1.15,2013-05-13 02:52:00,
2013-05-12 22:57:00,50.9,31.4,29.88,WNW,292,5.0,10.0,47,0.00,,,0.03,Wunderground v.1.15,2013-05-13 02:57:00,
2013-05-12 23:04:00,50.7,31.2,29.88,WNW,289,5.0,6.0,47,0.00,,,0.03,Wunderground v.1.15,2013-05-13 03:04:00,
2013-05-12 23:09:00,50.5,31.5,29.88,West,273,4.0,6.0,48,0.00,,,0.03,Wunderground v.1.15,2013-05-13 03:09:00,
2013-05-12 23:15:00,50.4,31.9,29.88,WNW,286,4.0,9.0,49,0.00,,,0.03,Wunderground v.1.15,2013-05-13 03:15:00,
2013-05-12 23:21:00,50.2,32.3,29.88,WNW,300,3.0,4.0,50,0.00,,,0.03,Wunderground v.1.15,2013-05-13 03:21:00,
2013-05-12 23:26:00,50.0,32.6,29.89,West,279,2.0,4.0,51,0.00,,,0.03,Wunderground v.1.15,2013-05-13 03:26:00,
2013-05-12 23:32:00,49.7,32.3,29.89,West,263,3.0,7.0,51,0.00,,,0.03,Wunderground v.1.15,2013-05-13 03:32:00,
2013-05-12 23:37:00,49.5,33.1,29.89,West,276,3.0,7.0,53,0.00,,,0.03,Wunderground v.1.15,2013-05-13 03:37:00,
2013-05-12 23:42:00,49.3,32.9,29.89,WNW,288,2.0,3.0,53,0.00,,,0.03,Wunderground v.1.15,2013-05-13 03:42:00,
2013-05-12 23:47:00,49.1,32.7,29.89,WNW,288,2.0,3.0,53,0.00,,,0.03,Wunderground v.1.15,2013-05-13 03:47:00,
2013-05-12 23:52:00,48.9,33.0,29.90,West,273,2.0,6.0,54,0.00,,,0.03,Wunderground v.1.15,2013-05-13 03:52:00,
2013-05-12 23:57:00,48.7,33.2,29.89,WNW,292,3.0,6.0,55,0.00,,,0.03,Wunderground v.1.15,2013-05-13 03:57:00,